When you browse on this site, cookies collect data to enhance your experience and personalize the content and advertising you see.
Visit our Privacy Policy to learn more. By continuing to use the site, you agree to this use of cookies and data.
  • en Suisse
  • Liste des pays
  • À 7 jours
  • Température de l'eau
  • Carte satellitaire
  • Carte météo
  • Widgets météo
  • user-avatar
    Se connecter

    Météo par heure à Suhl

    Ce jour, 24 Juillet, Mercredi

    Heure Température Précipitation Vent Pression Humidité
    00:00 +20°C° 0 mm 1 m/s 719 mmHg 76%
    01:00 +20°C° 0 mm 1 m/s 719 mmHg 78%
    02:00 +20°C° 0 mm 1 m/s 719 mmHg 77%
    03:00 +20°C° 0 mm 1 m/s 718 mmHg 77%
    04:00 +19°C° 0 mm 1 m/s 718 mmHg 76%
    05:00 +21°C° 0 mm 1 m/s 718 mmHg 73%
    06:00 +20°C° 0 mm 0 m/s 719 mmHg 69%
    07:00 +22°C° 0 mm 0 m/s 719 mmHg 65%
    08:00 +26°C° 0 mm 1 m/s 719 mmHg 60%
    09:00 +28°C° 0 mm 1 m/s 719 mmHg 54%
    10:00 +29°C° 0 mm 1 m/s 719 mmHg 49%
    11:00 +30°C° 0 mm 1 m/s 719 mmHg 46%
    12:00 +32°C° 0 mm 1 m/s 719 mmHg 43%
    13:00 +33°C° 0 mm 1 m/s 719 mmHg 40%
    14:00 +33°C° 0 mm 1 m/s 719 mmHg 39%
    15:00 +33°C° 0 mm 1 m/s 719 mmHg 39%
    16:00 +33°C° 0 mm 1 m/s 718 mmHg 39%
    17:00 +31°C° 0 mm 1 m/s 718 mmHg 45%
    18:00 +29°C° 0 mm 1 m/s 718 mmHg 52%
    19:00 +28°C° 0 mm 1 m/s 717 mmHg 58%
    20:00 +26°C° 0 mm 1 m/s 718 mmHg 62%
    21:00 +24°C° 0 mm 1 m/s 718 mmHg 66%
    22:00 +23°C° 0 mm 1 m/s 718 mmHg 70%
    23:00 +22°C° 0 mm 1 m/s 718 mmHg 70%

    Demain, 25 Juillet, Jeudi

    Heure Température Précipitation Vent Pression Humidité
    00:00 +22°C° 0 mm 1 m/s 718 mmHg 69%
    01:00 +22°C° 0 mm 1 m/s 718 mmHg 69%
    02:00 +19°C° 0 mm 0 m/s 718 mmHg 70%
    03:00 +19°C° 0 mm 0 m/s 718 mmHg 71%
    04:00 +18°C° 0 mm 0 m/s 718 mmHg 72%
    05:00 +20°C° 0 mm 0 m/s 718 mmHg 70%
    06:00 +21°C° 0 mm 0 m/s 718 mmHg 67%
    07:00 +23°C° 0 mm 0 m/s 719 mmHg 64%
    08:00 +25°C° 0 mm 0 m/s 719 mmHg 59%
    09:00 +29°C° 0 mm 1 m/s 719 mmHg 53%
    10:00 +31°C° 0 mm 1 m/s 720 mmHg 47%
    11:00 +32°C° 0 mm 1 m/s 719 mmHg 44%
    12:00 +33°C° 0 mm 1 m/s 719 mmHg 41%
    13:00 +34°C° 0 mm 1 m/s 719 mmHg 38%
    14:00 +34°C° 0 mm 2 m/s 719 mmHg 38%
    15:00 +34°C° 0 mm 2 m/s 718 mmHg 38%
    16:00 +34°C° 0 mm 3 m/s 718 mmHg 37%
    17:00 +31°C° 0 mm 3 m/s 718 mmHg 43%
    18:00 +29°C° 0 mm 3 m/s 717 mmHg 48%
    19:00 +27°C° 0 mm 3 m/s 717 mmHg 53%
    20:00 +26°C° 0 mm 3 m/s 717 mmHg 54%
    21:00 +24°C° 0 mm 2 m/s 717 mmHg 55%
    22:00 +21°C° 0 mm 2 m/s 717 mmHg 55%
    23:00 +21°C° 0 mm 2 m/s 717 mmHg 57%

    Après-demain, 26 Juillet, Vendredi

    Heure Température Précipitation Vent Pression Humidité
    00:00 +20°C° 0 mm 2 m/s 717 mmHg 59%
    01:00 +20°C° 0 mm 2 m/s 717 mmHg 61%
    02:00 +21°C° 0 mm 1 m/s 717 mmHg 63%
    03:00 +20°C° 0 mm 1 m/s 716 mmHg 65%
    04:00 +20°C° 0 mm 1 m/s 716 mmHg 66%
    05:00 +21°C° 0 mm 1 m/s 716 mmHg 65%
    06:00 +22°C° 0 mm 1 m/s 716 mmHg 64%
    07:00 +23°C° 0 mm 1 m/s 716 mmHg 63%
    08:00 +25°C° 0 mm 2 m/s 716 mmHg 57%
    09:00 +26°C° 0 mm 2 m/s 717 mmHg 51%
    10:00 +28°C° 0 mm 3 m/s 717 mmHg 45%
    11:00 +29°C° 0 mm 3 m/s 717 mmHg 43%
    12:00 +30°C° 0 mm 4 m/s 716 mmHg 40%
    13:00 +32°C° 0 mm 4 m/s 716 mmHg 38%
    14:00 +32°C° 0 mm 4 m/s 715 mmHg 39%
    15:00 +30°C° 0 mm 4 m/s 715 mmHg 39%
    16:00 +30°C° 0 mm 5 m/s 715 mmHg 40%
    17:00 +29°C° 0 mm 4 m/s 714 mmHg 45%
    18:00 +27°C° 0 mm 4 m/s 714 mmHg 50%
    19:00 +25°C° 0 mm 4 m/s 714 mmHg 55%
    20:00 +23°C° 0 mm 4 m/s 714 mmHg 56%
    21:00 +22°C° 0 mm 3 m/s 713 mmHg 58%
    22:00 +20°C° 0 mm 3 m/s 713 mmHg 59%
    23:00 +19°C° 0 mm 3 m/s 713 mmHg 63%

    27 Juillet, Samedi

    Heure Température Précipitation Vent Pression Humidité
    00:00 +18°C° 0 mm 2 m/s 713 mmHg 67%
    01:00 +18°C° 0 mm 2 m/s 712 mmHg 71%
    02:00 +17°C° 0 mm 2 m/s 712 mmHg 72%
    03:00 +17°C° 0 mm 2 m/s 712 mmHg 74%
    04:00 +16°C° 0 mm 2 m/s 711 mmHg 76%
    05:00 +17°C° 0 mm 2 m/s 712 mmHg 72%
    06:00 +19°C° 0 mm 2 m/s 712 mmHg 69%
    07:00 +20°C° 0 mm 2 m/s 712 mmHg 65%
    08:00 +21°C° 0 mm 3 m/s 712 mmHg 60%
    09:00 +23°C° 0 mm 4 m/s 712 mmHg 55%
    10:00 +25°C° 0 mm 4 m/s 712 mmHg 50%
    11:00 +26°C° 0 mm 4 m/s 712 mmHg 48%
    12:00 +27°C° 0 mm 4 m/s 712 mmHg 45%
    13:00 +28°C° 0 mm 4 m/s 711 mmHg 43%
    14:00 +28°C° 0 mm 4 m/s 711 mmHg 43%
    15:00 +28°C° 0 mm 4 m/s 711 mmHg 43%
    16:00 +28°C° 0 mm 4 m/s 710 mmHg 43%
    17:00 +27°C° 0 mm 4 m/s 710 mmHg 47%
    18:00 +25°C° 0 mm 4 m/s 710 mmHg 52%
    19:00 +24°C° 0 mm 3 m/s 710 mmHg 57%
    20:00 +22°C° 0 mm 3 m/s 710 mmHg 62%
    21:00 +21°C° 0 mm 3 m/s 710 mmHg 66%
    22:00 +19°C° 0 mm 3 m/s 710 mmHg 71%
    23:00 +19°C° 0 mm 3 m/s 710 mmHg 73%

    28 Juillet, Dimanche

    Heure Température Précipitation Vent Pression Humidité
    00:00 +18°C° 0 mm 3 m/s 710 mmHg 76%
    01:00 +17°C° 0 mm 2 m/s 710 mmHg 79%
    02:00 +17°C° 0 mm 2 m/s 710 mmHg 81%
    03:00 +16°C° 0 mm 2 m/s 710 mmHg 83%
    04:00 +16°C° 0 mm 2 m/s 710 mmHg 86%
    05:00 +17°C° 0 mm 2 m/s 710 mmHg 81%
    06:00 +18°C° 0 mm 2 m/s 710 mmHg 76%
    07:00 +19°C° 0 mm 3 m/s 711 mmHg 71%
    08:00 +21°C° 0 mm 3 m/s 711 mmHg 65%
    09:00 +23°C° 0 mm 4 m/s 711 mmHg 58%
    10:00 +25°C° 0 mm 5 m/s 712 mmHg 51%
    11:00 +26°C° 0 mm 5 m/s 712 mmHg 49%
    12:00 +27°C° 0 mm 4 m/s 712 mmHg 46%
    13:00 +29°C° 0 mm 4 m/s 712 mmHg 44%
    14:00 +28°C° 0.1 mm 4 m/s 712 mmHg 47%
    15:00 +28°C° 0.1 mm 4 m/s 712 mmHg 50%
    16:00 +28°C° 0.1 mm 4 m/s 712 mmHg 52%
    17:00 +27°C° 0.1 mm 4 m/s 712 mmHg 58%
    18:00 +26°C° 0.1 mm 3 m/s 712 mmHg 63%
    19:00 +24°C° 0.1 mm 3 m/s 712 mmHg 68%
    20:00 +22°C° 0 mm 3 m/s 712 mmHg 71%
    21:00 +21°C° 0 mm 3 m/s 713 mmHg 73%
    22:00 +20°C° 0 mm 2 m/s 713 mmHg 76%
    23:00 +19°C° 0 mm 2 m/s 713 mmHg 78%

    29 Juillet, Lundi

    Heure Température Précipitation Vent Pression Humidité
    00:00 +19°C° 0 mm 2 m/s 714 mmHg 80%
    01:00 +19°C° 0 mm 1 m/s 714 mmHg 82%
    02:00 +19°C° 0 mm 1 m/s 714 mmHg 84%
    03:00 +18°C° 0 mm 1 m/s 714 mmHg 85%
    04:00 +18°C° 0 mm 1 m/s 714 mmHg 87%
    05:00 +19°C° 0 mm 1 m/s 715 mmHg 82%
    06:00 +21°C° 0 mm 1 m/s 715 mmHg 77%
    07:00 +22°C° 0 mm 1 m/s 716 mmHg 73%
    08:00 +24°C° 0 mm 2 m/s 716 mmHg 66%
    09:00 +25°C° 0 mm 2 m/s 716 mmHg 60%
    10:00 +27°C° 0 mm 3 m/s 717 mmHg 53%
    11:00 +28°C° 0 mm 3 m/s 717 mmHg 50%
    12:00 +29°C° 0 mm 3 m/s 717 mmHg 46%
    13:00 +30°C° 0 mm 3 m/s 717 mmHg 42%
    14:00 +30°C° 0 mm 3 m/s 717 mmHg 43%
    15:00 +30°C° 0 mm 3 m/s 717 mmHg 44%
    16:00 +30°C° 0 mm 3 m/s 716 mmHg 45%
    17:00 +28°C° 0 mm 3 m/s 716 mmHg 52%
    18:00 +27°C° 0 mm 3 m/s 716 mmHg 58%
    19:00 +26°C° 0 mm 2 m/s 716 mmHg 64%
    20:00 +25°C° 0 mm 2 m/s 716 mmHg 69%
    21:00 +23°C° 0 mm 2 m/s 716 mmHg 73%
    22:00 +22°C° 0 mm 1 m/s 717 mmHg 78%
    23:00 +21°C° 0 mm 1 m/s 717 mmHg 79%
    Voir plus